Regional Weather Roundup
Issued by NWS Newport/Morehead, NC

Current Version | Previous Version | Text Only | Print | Product List | Glossary Off
Versions: 1 2 3 4 5 6 7 8 9 10 11 12 13 14 15 16 17 18 19 20 21 22 23 24 25 26 27 28 29 30 31 32 33 34 35 36 37 38 39 40 41 42 43 44 45 46 47 48 49 50
000 ASUS42 KMHX 251622 RWRMHX WEATHER ROUNDUP FOR EASTERN NORTH CAROLINA NATIONAL WEATHER SERVICE NEWPORT/MOREHEAD CITY NC 1100 AM EST TUE NOV 25 2014 NOTE: "FAIR" INDICATES FEW OR NO CLOUDS BELOW 12,000 FEET WITH NO SIGNIFICANT WEATHER AND/OR OBSTRUCTIONS TO VISIBILITY NCZ015>017-031-032-045>047-102-103-251700- NORTH COAST CITY SKY/WX TMP DP RH WIND PRES REMARKS EDENTON DRIZZLE 62 61 96 SW5 30.06F ELIZABETH CITY LGT RAIN 65 60 84 SW8 30.07R KITTY HAWK LGT RAIN 62 61 96 W6 30.05F MANTEO LGT RAIN 62 60 93 W6 30.07R $$ NCZ045>047-081-094-103-104-251700- CENTRAL COAST CITY SKY/WX TMP DP RH WIND PRES REMARKS FRISCO CLOUDY 64 63 96 W6 30.06F SWANQUARTER N/A 63 N/A N/A W6G13 30.03S $$ NCZ095-097-098-100-101-251700- SOUTHERN COAST CITY SKY/WX TMP DP RH WIND PRES REMARKS BEAUFORT PTSUNNY 69 61 75 NW6 30.06F CEDAR ISLAND N/A 68 N/A N/A NW3G12 30.09S JACKSONVILLE CLOUDY 64 62 93 W3 30.08F PINEY ISLAND CLOUDY 71 62 73 W10 30.07S WILMINGTON LGT RAIN 65 62 90 W6 30.06F FOG $$ NCZ011>013-027>030-043-044-078>080-089-090>093-098-251700- COASTAL PLAIN CITY SKY/WX TMP DP RH WIND PRES REMARKS AHOSKIE RAIN 60 58 96 CALM 30.05F CLINTON RAIN 61 61 100 S3 30.07F ELIZABETHTOWN LGT RAIN 61 61 100 CALM 30.05F GOLDSBORO LGT RAIN 61 61 99 SW9 30.07R GREENVILLE LGT RAIN 63 61 94 SW5 30.07F HAVELOCK RAIN 66 62 87 NW8 30.09R KENANSVILLE LGT RAIN 61 60 97 CALM 30.07F KINSTON LGT RAIN 63 61 94 SW6 30.09S NEW BERN CLOUDY 66 61 84 W3 30.08F RICHLANDS CLOUDY 63 61 94 SW3 30.06F ROCKY MOUNT CLOUDY 61 59 93 SW6 30.07S WASHINGTON CLOUDY 62 60 94 SW3 30.06F WHITEVILLE LGT RAIN 63 61 94 S5 30.07F $$ AMZ130-135-150-152-154-156-158-170-250-252-270-ANZ085-086-088-633-658-670-251700- MARINE OBSERVATIONS STATION/POSITION TIME TEMP WIND PRES WAVE SWELL AIR SEA DIR/SP/G HT/PER HT/PER (UTC) (F) (DEG/KT/KT) (MB) (FT/S) (FT/S) CHESAPEAKE LIGHT 1600 60 200/ 16/ 17 1017.9 64 E VA BEACH 1600 65 64 270/ 10/ 12 1016.8 5/ 9 5/ 9 DUCK 1600 60 59 230/ 7/ 8 1017.6 2 E DUCK 1600 58 N/A 4/ 9 2/11 10 NE DUCK 1600 59 N/A 4/ 9 2/11 OREGON INLET 1600 60 57 260/ 2/ 3 1017.2 13E OREGON INLT 1600 62 N/A 4/ 8 2/11 HATTERAS CG 1600 64 62 250/ 4/ 6 1018.1 DIAMOND BUOY 1600 71 280/ 16/ 17 1017.3 5/ 9 5/ 9 17 S OCRACOKE NOT AVBL CAPE LOOKOUT 1600 65 290/ 10/ 11 1017.6 BEAUFORT LAB 1600 67 57 350/ 4/ 5 1016.9 30 SE NEW RIVER 1600 67 69 310/ 8/ 12 1018.2 5/ 8 5/ 8 5 SE WRIGHTSVLE 1600 60 59 330/ 6/ 8 1017.3 225 S CAPE HAT 1520 75 74 190/ 14/ 16 1020.1 6/ 8 5/ 8 41 SE CHARLESTON 1600 69 75 340/ 10/ 12 1016.9 4/ 9 3/ 9 $$

USA.gov is the U.S. government's official web portal to all federal, state and local government web resources and services.